Hourly Data Report for December 04, 2017

All times are specified in Local Standard Time (LST). Add 1 hour to adjust for Daylight Saving Time where and when it is observed.

SCHEFFERVILLE A
QUEBEC

54°48'19.000" N
66°48'19.000" W
520.90 m
7117823
71921
YKL

Download Data

Hourly Data (December 2017)
Hourly Data Report for December 4, 2017
Temp Definition
°C
Dew Point Temp Definition
°C
Rel Hum Definition
%
Wind Dir Definition
10's deg

Wind Spd Definition
km/h
Visibility Definition
km
Stn Press Definition
kPa
Hmdx Definition


Wind Chill Definition


Weather Definition


TIME
00:00 Legend Double Dagger -13.6 -14.5 93 15 8 16.1 96.29   -19 LegendNANA
01:00 Legend Double Dagger -14.9 -15.9 92 15 8 16.1 96.31   -20 LegendNANA
02:00 Legend Double Dagger -15.2 -16.5 90 16 11 16.1 96.34   -22 LegendNANA
03:00 Legend Double Dagger -15.6 -16.9 90 15 9 16.1 96.36   -22 LegendNANA
04:00 Legend Double Dagger -16.2 -17.5 90 13 9 16.1 96.39   -22 LegendNANA
05:00 Legend Double Dagger -16.0 -17.3 90 14 9 16.1 96.39   -22 Snow
06:00 Legend Double Dagger -14.8 -16.0 91 15 5 16.1 96.41   -18 Snow
07:00 Legend Double Dagger -14.6 -15.8 91 15 5 16.1 96.43   -18 Snow
08:00 Legend Double Dagger -14.3 -15.5 91 15 13 16.1 96.44   -21 Snow
09:00 Legend Double Dagger -13.6 -14.6 92 15 9 16.1 96.45   -19 Snow
10:00 Legend Double Dagger -12.8 -13.7 93 16 13 16.1 96.45   -20 Snow
11:00 Legend Double Dagger -11.2 -12.0 94 16 13 16.1 96.39   -18 Snow
12:00 Legend Double Dagger -9.9 -10.6 95 15 11 16.1 96.31   -15 Snow
13:00 Legend Double Dagger -9.3 -10.0 95 14 9 16.1 96.28   -14 LegendNANA
14:00 Legend Double Dagger -7.9 -8.4 96 16 15 16.1 96.27   -14 LegendNANA
15:00 Legend Double Dagger -7.3 -7.7 97 17 17 16.1 96.30   -14 Snow
16:00 Legend Double Dagger -7.4 -7.9 96 14 11 16.1 96.32   -12 Snow
17:00 Legend Double Dagger -6.9 -7.7 94 16 22 16.1 96.31   -14 Snow
18:00 Legend Double Dagger -6.5 -7.6 92 16 13 16.1 96.32   -12 Snow
19:00 Legend Double Dagger -5.8 -7.0 91 17 17 16.1 96.30   -12 Snow
20:00 Legend Double Dagger -5.6 -6.9 91 18 15 16.1 96.27   -11 Snow
21:00 Legend Double Dagger -5.8 -6.9 92 15 9 16.1 96.25   -10 LegendNANA
22:00 Legend Double Dagger -5.8 -6.9 92 13 8 16.1 96.26   -10 LegendNANA
23:00 Legend Double Dagger -6.3 -7.0 95 LegendMM 5 16.1 96.26   -9 LegendNANA

Notes on Data Quality.

Legend

  • E = Estimated
  • M = Missing
  • NA = Not Available
  • ‡ = Partner data that is not subject to review by the National Climate Archives
Date modified: